FW1597 Weather Reports


time (UTC)temp
F
wind
direction
speed
knots
gust
knots
rain 1hr
in
rain 24hr
in
rain mn
in
humidity
%
barometer
mb
20260508013032 47 194 0.0 3.5 0.00 1.34 1.34 94 1001.9
20260508011538 47 207 0.0 2.6 0.00 1.34 1.34 94 1001.7
20260508010038 47 227 0.0 0.0 0.00 1.34 1.34 94 1001.5
20260508004537 46 227 0.0 0.0 0.00 1.34 1.34 94 1001.8
20260508003029 46 227 0.0 1.7 0.00 1.34 1.34 94 1002.1
20260508001530 47 227 0.9 3.5 0.00 1.34 1.34 94 1002.0
20260508000028 47 113 0.9 2.6 0.00 1.34 1.34 94 1002.0
20260507234535 47 86 0.0 3.5 0.00 1.34 1.34 94 1002.0
20260507233033 46 226 0.0 3.5 0.00 1.34 1.34 94 1001.9
20260507231529 47 248 0.9 6.1 0.00 1.34 1.34 94 1002.0
20260507230026 47 199 1.7 7.0 0.00 1.34 1.34 94 1002.1
20260507224526 48 131 0.0 6.1 0.00 1.34 1.34 94 1002.1
20260507223026 48 143 3.5 7.0 0.00 1.34 1.34 94 1001.8
20260507221525 49 201 3.5 9.6 0.00 1.34 1.34 94 1001.9
20260507220024 49 198 3.5 9.6 0.00 1.34 1.34 94 1001.7
20260507214624 49 154 4.3 13.0 0.00 1.34 1.34 94 1002.0
20260507213022 51 153 6.1 18.2 0.00 1.34 1.34 94 1002.2
20260507211525 50 194 6.1 13.9 0.02 1.34 1.34 94 1001.9
20260507210018 50 167 3.5 13.0 0.06 1.34 1.34 94 1001.7
20260507204516 50 124 6.1 12.2 0.09 1.34 1.34 94 1001.2
20260507203014 50 165 3.5 8.7 0.16 1.34 1.34 94 1002.3
20260507201515 50 154 2.6 7.0 0.25 1.32 1.32 94 1003.1
20260507200008 50 174 3.5 7.0 0.36 1.28 1.28 94 1003.4
20260507194508 50 193 3.5 7.0 0.52 1.24 1.24 94 1003.4
20260507193005 49 204 2.6 7.0 0.61 1.17 1.17 94 1003.9
20260507191502 48 120 1.7 7.0 0.61 1.06 1.06 94 1004.4
20260507190101 48 214 0.9 8.7 0.66 0.91 0.91 94 1005.0
20260507184600 48 181 2.6 9.6 0.57 0.72 0.72 94 1004.9
20260507183100 47 144 3.5 9.6 0.45 0.56 0.56 94 1004.8
20260507181558 46 162 2.6 11.3 0.35 0.44 0.44 93 1004.6
20260507180106 47 205 6.1 14.8 0.16 0.24 0.24 93 1005.3
20260507174630 48 222 7.8 15.6 0.06 0.14 0.14 94 1004.3
20260507173056 48 167 5.2 20.9 0.04 0.13 0.13 93 1004.6
20260507171608 49 154 5.2 12.2 0.02 0.09 0.09 94 1005.0
20260507170051 49 234 7.0 13.0 0.05 0.09 0.09 93 1004.9
20260507164553 48 177 7.8 17.4 0.07 0.09 0.09 94 1005.4
20260507163047 47 189 5.2 13.0 0.07 0.09 0.09 93 1006.1
20260507161547 47 193 7.0 17.4 0.06 0.07 0.07 93 1006.5
20260507160108 47 192 6.1 13.0 0.02 0.04 0.04 93 1006.8
20260507154540 47 173 6.1 13.9 0.00 0.02 0.02 93 1007.1
20260507153038 47 154 6.1 16.5 0.00 0.02 0.02 93 1007.6
20260507151534 48 200 6.1 12.2 0.00 0.02 0.02 93 1008.2
20260507150037 48 156 6.1 19.1 0.00 0.02 0.02 93 1008.3
20260507144532 48 229 6.1 17.4 0.00 0.02 0.02 93 1008.4
20260507143031 48 203 4.3 15.6 0.00 0.02 0.02 94 1008.6
20260507141528 48 221 5.2 15.6 0.00 0.02 0.02 94 1009.1
20260507140037 48 169 6.1 19.1 0.00 0.02 0.02 94 1009.4
20260507134526 48 167 4.3 14.8 0.00 0.02 0.02 94 1009.5
20260507133025 48 231 5.2 11.3 0.00 0.02 0.02 94 1009.7
20260507131541 48 199 4.3 18.2 0.00 0.02 0.02 94 1010.0
20260507130022 48 184 7.8 20.0 0.00 0.02 0.02 94 1009.8
20260507124523 48 178 7.0 17.4 0.01 0.02 0.02 94 1009.9
20260507123026 49 196 7.8 20.9 0.01 0.02 0.02 94 1009.7
20260507121518 49 153 7.0 15.6 0.01 0.02 0.02 94 1009.9
20260507120026 48 229 5.2 14.8 0.01 0.02 0.02 94 1009.7
20260507114511 47 178 3.5 20.9 0.01 0.01 0.01 94 1010.3
20260507113008 47 165 6.1 19.1 0.01 0.01 0.01 94 1010.8
20260507111506 48 143 6.1 16.5 0.01 0.01 0.01 94 1010.8
20260507110003 47 181 5.2 15.6 0.01 0.01 0.01 94 1011.0
20260507104504 47 232 6.1 16.5 0.00 0.00 0.00 94 1010.7
20260507103100 46 186 5.2 13.9 0.00 0.00 0.00 94 1011.0
20260507101540 46 166 5.2 14.8 0.00 0.00 0.00 94 1011.6
20260507100051 46 150 3.5 12.2 0.00 0.00 0.00 94 1011.4
20260507094539 47 150 3.5 13.9 0.00 0.00 0.00 94 1011.6
20260507093036 47 145 3.5 13.9 0.00 0.00 0.00 94 1011.7
20260507091539 47 174 3.5 10.4 0.00 0.00 0.00 94 1011.5
20260507090030 47 194 4.3 10.4 0.00 0.00 0.00 94 1011.6
20260507084544 47 263 5.2 15.6 0.00 0.00 0.00 94 1011.9
20260507083026 46 171 3.5 9.6 0.00 0.00 0.00 94 1012.0
20260507081523 46 138 3.5 7.8 0.00 0.00 0.00 94 1012.2
20260507080021 46 211 1.7 6.1 0.00 0.00 0.00 93 1012.4
20260507074520 46 61 1.7 7.0 0.00 0.00 0.00 93 1012.4
20260507073022 46 149 2.6 6.1 0.00 0.00 0.00 93 1013.0
20260507071517 46 198 3.5 9.6 0.00 0.00 0.00 93 1013.1
20260507070018 46 209 3.5 11.3 0.00 0.00 0.00 93 1013.2
20260507064509 47 207 2.6 10.4 0.00 0.00 0.00 93 1013.5
20260507063010 47 187 3.5 7.8 0.00 0.00 0.00 93 1014.0
20260507061504 47 201 0.9 5.2 0.00 0.00 0.00 93 1014.1
20260507060001 46 167 1.7 5.2 0.00 0.00 0.00 93 1014.2
20260507054559 46 182 0.9 3.5 0.00 0.00 0.00 93 1014.4
20260507053058 46 165 0.0 4.3 0.00 0.00 0.00 93 1014.9
20260507051600 46 150 1.7 4.3 0.00 0.00 0.00 93 1015.1
20260507050105 46 192 0.9 2.6 0.00 0.00 0.00 93 1015.5
20260507044553 46 171 0.9 4.3 0.00 0.00 0.00 93 1016.1
20260507043046 46 190 0.0 2.6 0.00 0.00 0.00 93 1016.2
20260507041545 46 212 0.9 2.6 0.00 0.00 0.00 93 1016.5
20260507040042 46 168 0.0 1.7 0.00 0.00 0.00 92 1016.7
20260507034542 46 187 0.0 3.5 0.00 0.00 0.00 92 1016.9
20260507033042 46 178 0.9 3.5 0.00 0.00 0.00 92 1017.1
20260507031536 46 182 0.9 3.5 0.00 0.00 0.00 92 1017.4
20260507030037 46 163 0.9 4.3 0.00 0.00 0.00 92 1017.6
20260507024542 46 186 0.9 4.3 0.00 0.00 0.00 92 1017.8
20260507023032 46 173 1.7 4.3 0.00 0.00 0.00 91 1018.1
20260507021545 47 187 1.7 7.0 0.00 0.00 0.00 91 1018.2
20260507020030 47 136 1.7 3.5 0.00 0.00 0.00 91 1018.1
20260507014528 48 206 3.5 6.1 0.00 0.00 0.00 91 1018.2